Regional Weather Roundup
Issued by NWS

Home | Current Version | Previous Version | Text Only | Print | Product List | Glossary Off
Versions: 1 2 3 4 5 6 7 8 9 10 11 12 13 14 15 16 17 18 19 20 21 22 23 24 25

000
ASUS45 KSLC 172010
RWRUT

UTAH REGIONAL WEATHER ROUNDUP
NATIONAL WEATHER SERVICE SALT LAKE CITY UT
100 PM MST SAT FEB 17 2018

UTZ001>011-023>025-172100-

NORTHERN UTAH

CITY           SKY/WX    TMP DP  RH WIND       PRES   REMARKS
BRIGHAM CITY   SUNNY     49  16  27 S15G21    30.10F
HILL AFB       SUNNY     48  17  29 S13G21    30.08F
LOGAN          SUNNY     50  19  29 S8        30.07F
OGDEN          SUNNY     49  17  28 S10G20    30.09F
SALT LAKE CITY MOSUNNY   53  18  25 S22G30    30.08F
TOOELE VALLEY  SUNNY     54  21  28 S21G31    30.07F
WENDOVER       SUNNY     42  16  34 VRB5      30.07F
HEBER CITY       N/A     46  16  29 SW8       30.10F
WEST JORDAN    SUNNY     46  21  36 SE26      30.10F

$$

UTZ011>015-024>027-172100-

CENTRAL/NORTHEAST UTAH

CITY           SKY/WX    TMP DP  RH WIND       PRES   REMARKS
PROVO AIRPORT  SUNNY     46  19  34 CALM      30.14F
MOAB/CANYONLAN SUNNY     46  21  37 CALM      30.19F
DELTA          SUNNY     46  12  25 SW10      30.14F
PRICE          SUNNY     41  11  29 VRB7      30.17F
ROOSEVELT      SUNNY     46  10  23 E7        30.14F
VERNAL         SUNNY     42  12  29 VRB6      30.12F

$$

UTZ013>016-019>022-027-172100-

SOUTHERN UTAH

CITY           SKY/WX    TMP DP  RH WIND       PRES   REMARKS
BRYCE CANYON   SUNNY     46  19  34 SE7       30.20F
CEDAR CITY     SUNNY     55  20  25 SW10      30.15F
MILFORD        SUNNY     54  17  23 S16       30.13F
ST GEORGE      CLEAR     50  32  50 SW5       30.21F
HANKSVILLE     SUNNY     45  18  33 SE6       30.23F
BLANDING         N/A     48  17  29 S7        30.28F

$$

REGIONAL REPORTS     COLORADO/ARIZONA

CITY           SKY/WX    TMP DP  RH WIND       PRES   REMARKS
CRAIG, CO      SUNNY     35  14  42 E8        30.13F WCI  29
GRAND JUNCTION SUNNY     44  23  43 W3        30.20F
RIFLE, CO      SUNNY     39  17  41 CALM      30.19F
MONTROSE, CO   SUNNY     44  18  35 NW5       30.20F
CORTEZ, CO     SUNNY     50  14  23 VRB3      30.20F
COLORADO CITY    N/A     54  25  32 CALM      30.23F
PAGE, AZ       SUNNY     48  23  37 CALM      30.21F
GRAND CANYON   SUNNY     53  17  24 SW9       30.22F
KINGMAN, AZ    SUNNY     61  20  20 CALM      30.18F
FLAGSTAFF, AZ  SUNNY     50  18  28 SW5       30.23F

$$

REGIONAL REPORTS    NEVADA/IDAHO/WYOMING

CITY           SKY/WX    TMP DP  RH WIND       PRES   REMARKS
LAS VEGAS, NV  MOSUNNY   60  13  15 VRB3      30.19F
ELY, NY        SUNNY     50  17  27 S12       30.13F
ELKO, NV       SUNNY     52  24  33 SW17G25   30.06F
POCATELLO, ID  MOSUNNY   45  24  43 S15       29.99F
BURLEY, ID     SUNNY     50  20  30 W14G22    29.97F
EVANSTON, WY   SUNNY     39  15  37 SW17G28   30.06F WCI  30
ROCK SPRINGS,  SUNNY     42  10  27 W35G40    29.99F

$$




USA.gov is the U.S. government's official web portal to all federal, state and local government web resources and services.